Orbital Elements at Epoch 2459200.5 (2020-Dec-17.0) TDB
Reference: JPL 12 (heliocentric ecliptic J2000)
Element | Value | Uncertainty (1-sigma) | Units |
e | .1580264687569317 | 2.1252e-05 | |
a | 1.05328149565289 | 2.1623e-05 | au |
q | .8868351402878438 | 4.0558e-05 | au |
i | 4.077114353120386 | 0.0045207 | deg |
node | 194.854897255192 | 0.016208 | deg |
peri | 278.0449853072605 | 0.0006505 | deg |
M | 342.6431226214706 | 0.19641 | deg |
tp | 2459219.536372880319 (2021-Jan-05.03637288) | 0.21483 | TDB |
period | 394.8345135739849 1.08 | 0.012159 3.329e-05 | d yr |
n | .9117743956609368 | 2.8077e-05 | deg/d |
Q | 1.219727851017935 | 2.504e-05 | au |
|
| | Orbit Determination Parameters
Additional Information
|